Stations météo

réclame
Mon MeteoGroup
Wijk aan Zee, Pays-Bas (6257): Température de l'air & dewpoint: 12.10.2017 11:00:00 - 18.10.2017 11:00:00 (CEST)Wijk aan Zee, Pays-Bas (6257): Température de l'air 5cm: 12.10.2017 11:00:00 - 18.10.2017 11:00:00 (CEST)Wijk aan Zee, Pays-Bas (6257): Quantités de précipitations: 12.10.2017 11:00:00 - 18.10.2017 11:00:00 (CEST)
Date & Time tt [°C] td [°C] tt 5cm [°C] rr [mm]
18.10.2017 11:00:00 14,7 11,9 15,3 0,0
18.10.2017 10:00:00 13,4 11,6 13,5 0,0
18.10.2017 09:00:00 12,9 11,1 12,7 0,0
18.10.2017 08:00:00 12,6 11,1 12,4 0,0
18.10.2017 07:00:00 12,3 10,9 12,1 0,0
18.10.2017 06:00:00 12,3 11,0 12,1 0,0
18.10.2017 05:00:00 12,3 10,5 11,9 0,0
18.10.2017 04:00:00 11,8 10,3 11,7 0,0
18.10.2017 03:00:00 11,8 10,6 11,6 0,0
18.10.2017 02:00:00 11,9 10,9 11,1 0,0
18.10.2017 01:00:00 12,5 10,6 11,5 0,0
18.10.2017 00:00:00 12,9 10,3 12,0 0,0
17.10.2017 23:00:00 12,5 10,1 11,3 0,0
17.10.2017 22:00:00 13,4 10,4 12,9 0,0
17.10.2017 21:00:00 14,3 10,4 13,5 0,0
17.10.2017 20:00:00 14,2 10,2 13,5 0,0
17.10.2017 19:00:00 14,3 9,8 13,7 0,0
17.10.2017 18:00:00 14,5 9,3 14,2 0,0
17.10.2017 17:00:00 14,7 8,9 14,5 0,0
17.10.2017 16:00:00 14,8 8,6 14,7 0,0
17.10.2017 15:00:00 15,1 8,6 15,2 0,0
17.10.2017 14:00:00 15,4 9,7 15,8 0,0
17.10.2017 13:00:00 15,4 9,7 16,0 0,0
17.10.2017 12:00:00 15,4 9,4 15,7 0,0
17.10.2017 11:00:00 15,1 9,4 14,9 0,0
17.10.2017 10:00:00 15,2 9,9 14,7 0,0
17.10.2017 09:00:00 15,0 9,5 14,4 0,0
17.10.2017 08:00:00 15,0 9,4 14,3 0,0
17.10.2017 07:00:00 14,9 10,7 14,3 0,0
17.10.2017 06:00:00 14,9 10,5 14,3 0,0
17.10.2017 05:00:00 15,3 10,6 14,8 0,0
17.10.2017 04:00:00 15,6 11,1 15,1 0,0
17.10.2017 03:00:00 16,0 10,3 15,4 0,0
17.10.2017 02:00:00 15,9 12,9 15,3 0,0
17.10.2017 01:00:00 16,3 13,8 15,9 0,0
17.10.2017 00:00:00 17,0 14,8 16,7 0,0
16.10.2017 23:00:00 17,6 14,8 17,3 0,0
16.10.2017 22:00:00 18,6 14,8 18,2 0,0
16.10.2017 21:00:00 20,5 15,1 19,6 0,0
16.10.2017 20:00:00 21,9 16,1 21,0 0,0
16.10.2017 19:00:00 22,1 16,3 21,1 0,0
16.10.2017 18:00:00 22,8 16,0 21,8 0,0
16.10.2017 17:00:00 23,9 16,3 24,0 0,0
16.10.2017 16:00:00 24,1 15,9 25,0 0,0
16.10.2017 15:00:00 24,3 15,9 25,2 0,0
16.10.2017 14:00:00 23,3 16,1 24,8 0,0
16.10.2017 13:00:00 24,0 15,5 24,6 0,0
16.10.2017 12:00:00 22,1 15,0 22,6 0,0
16.10.2017 11:00:00 20,9 14,9 20,8 0,0
16.10.2017 10:00:00 19,8 14,6 19,2 0,0
16.10.2017 09:00:00 18,5 14,4 17,9 0,0
16.10.2017 08:00:00 18,2 14,1 17,6 0,0
16.10.2017 07:00:00 17,5 14,1 16,5 0,0
16.10.2017 06:00:00 17,0 14,0 16,0 0,0
16.10.2017 05:00:00 17,8 14,4 17,1 0,0
16.10.2017 04:00:00 17,7 14,2 17,1 0,0
16.10.2017 03:00:00 17,9 14,1 17,1 0,0
16.10.2017 02:00:00 17,4 14,1 16,3 0,0
16.10.2017 01:00:00 16,6 14,2 16,0 0,0
16.10.2017 00:00:00 18,7 13,8 18,0 0,0
15.10.2017 23:00:00 19,1 13,3 18,3 0,0
15.10.2017 22:00:00 19,8 13,0 18,9 0,0
15.10.2017 21:00:00 20,5 13,1 19,0 0,0
15.10.2017 20:00:00 20,0 13,3 18,8 0,0
15.10.2017 19:00:00 19,9 14,2 18,7 0,0
15.10.2017 18:00:00 21,1 13,7 20,4 0,0
15.10.2017 17:00:00 22,2 13,2 22,6 0,0
15.10.2017 16:00:00 22,9 13,0 23,9 0,0
15.10.2017 15:00:00 22,7 13,2 23,9 0,0
15.10.2017 14:00:00 20,9 14,1 22,7 0,0
15.10.2017 13:00:00 19,8 14,0 21,2 0,0
15.10.2017 12:00:00 18,7 13,6 19,4 0,0
15.10.2017 11:00:00 16,8 13,4 16,9 0,0
15.10.2017 10:00:00 14,8 13,1 14,3 0,0
15.10.2017 09:00:00 13,7 12,7 13,0 0,0
15.10.2017 08:00:00 13,6 12,8 13,0 0,0
15.10.2017 07:00:00 13,8 13,0 13,2 0,0
15.10.2017 06:00:00 14,3 13,3 13,6 0,0
15.10.2017 05:00:00 14,5 13,5 13,7 0,0
15.10.2017 04:00:00 14,8 13,8 13,4 0,0
15.10.2017 03:00:00 14,4 13,1 13,4 0,0
15.10.2017 02:00:00 13,6 12,5 12,2 0,0
15.10.2017 01:00:00 13,7 12,5 11,8 0,0
15.10.2017 00:00:00 13,9 12,5 12,4 0,0
14.10.2017 23:00:00 15,4 13,2 14,2 0,0
14.10.2017 22:00:00 15,6 13,8 14,8 0,0
14.10.2017 21:00:00 15,2 13,9 14,4 0,0
14.10.2017 20:00:00 15,5 14,1 14,9 0,0
14.10.2017 19:00:00 15,7 14,2 15,3 0,0
14.10.2017 18:00:00 16,4 14,3 16,3 0,0
14.10.2017 17:00:00 16,8 14,3 17,5 0,0
14.10.2017 16:00:00 17,1 14,4 18,3 0,0
14.10.2017 15:00:00 16,9 14,6 17,4 0,0
14.10.2017 14:00:00 16,6 14,4 17,5 0,0
14.10.2017 13:00:00 16,6 14,8 17,2 0,0
14.10.2017 12:00:00 16,3 14,7 16,9 0,0
14.10.2017 11:00:00 16,2 14,8 16,5 0,0
14.10.2017 10:00:00 15,8 14,6 16,0 0,0
14.10.2017 09:00:00 15,5 14,4 15,1 0,0
14.10.2017 08:00:00 15,6 14,3 15,5 0,0
14.10.2017 07:00:00 15,7 14,4 15,6 0,0
14.10.2017 06:00:00 15,7 14,5 15,6 0,0
14.10.2017 05:00:00 15,7 14,5 15,6 0,0
14.10.2017 04:00:00 15,6 14,6 15,5 0,0
14.10.2017 03:00:00 15,5 14,5 15,3 0,0
14.10.2017 02:00:00 15,5 14,4 15,0 0,0
14.10.2017 01:00:00 15,5 14,5 15,1 0,0
14.10.2017 00:00:00 15,6 14,7 15,2 0,0
13.10.2017 23:00:00 15,7 14,7 15,3 0,0
13.10.2017 22:00:00 16,0 14,5 15,7 0,0
13.10.2017 21:00:00 16,1 14,5 15,7 0,0
13.10.2017 20:00:00 16,2 14,6 15,9 0,0
13.10.2017 19:00:00 16,4 14,6 16,2 0,0
13.10.2017 18:00:00 16,5 14,6 16,5 0,0
13.10.2017 17:00:00 16,6 14,5 16,8 0,0
13.10.2017 16:00:00 16,7 14,5 17,1 0,0
13.10.2017 15:00:00 16,5 14,6 16,6 0,0
13.10.2017 14:00:00 16,6 14,4 17,0 0,0
13.10.2017 13:00:00 16,5 14,4 16,5 0,0
13.10.2017 12:00:00 16,1 14,4 16,6 0,0
13.10.2017 11:00:00 15,9 14,3 16,2 0,0
13.10.2017 10:00:00 15,0 13,8 14,6 0,0
13.10.2017 09:00:00 15,0 12,5 14,6 0,0
13.10.2017 08:00:00 14,3 11,8 13,7 0,0
13.10.2017 07:00:00 14,2 10,8 13,5 0,0
13.10.2017 06:00:00 14,6 10,7 14,0 0,0
13.10.2017 05:00:00 14,5 10,7 13,5 0,0
13.10.2017 04:00:00 14,5 11,5 13,6 0,0
13.10.2017 03:00:00 14,2 10,8 13,5 0,0
13.10.2017 02:00:00 14,5 11,0 13,6 0,0
13.10.2017 01:00:00 14,5 11,2 13,8 0,0
13.10.2017 00:00:00 14,7 12,0 14,1 0,0
12.10.2017 23:00:00 14,7 12,0 14,2 0,0
12.10.2017 22:00:00 14,6 11,5 14,1 0,0
12.10.2017 21:00:00 14,8 11,3 14,3 0,0
12.10.2017 20:00:00 14,7 10,7 14,1 0,0
12.10.2017 19:00:00 14,6 10,7 14,2 0,0
12.10.2017 18:00:00 15,0 10,4 14,9 0,0
12.10.2017 17:00:00 14,9 8,9 15,0 0,0
12.10.2017 16:00:00 15,0 8,0 15,6 0,0
12.10.2017 15:00:00 15,1 8,2 15,8 0,0
12.10.2017 14:00:00 14,8 7,5 15,0 0,0
12.10.2017 13:00:00 14,9 7,5 14,9 0,0
12.10.2017 12:00:00 14,1 7,1 14,1 0,0
12.10.2017 11:00:00 13,9 7,4 14,1 0,0

tt = Température de l'air
td = dewpoint
tt 5cm = Température de l'air 5cm
rr = Quantités de précipitations

stations d'obs. à proximité